DELTA 1 DEB, 7184

Orbit data source: Space-Track

DELTA 1 DEB, 7184 is space debris in SSO originally from a launch on Tue, 06 Nov 1973 UTC launched from the Air Force Western Test Range (AFWTR). Debris objects in space refer to the collection of defunct objects orbiting the Earth. Examples of debris include non-operational satellites, rocket bodies, and fragments generated from explosions, collisions, or faulty payload assembly.

Loading next visibility...
Identifier
7184, 1973-086EV
Orbit
SSO
Country
Flag of USUS
Related business
Manufacturer
Unknown
Mission
Spacecraft
Bus & Motor
Unknown
Mass
Unknown
Launch date (UTC)
1973-11-06 (52 years ago)
Launch vehicle
Unknown
Launch site
Air Force Western Test Range (AFWTR)
Object type
Payload
Rocket body
Debris
Shape & HBR
Unknown shape, 0.1 m
Radar Cross Section
Small (<0.1 m²)

Expand to show TLE details & history
Last TLE update: 1 day ago

TLE from 1 day ago
0 DELTA 1 DEB
1  7184U 73086EV  25306.42561160  .00000993  00000-0  29743-2 0  9993
2  7184 102.2745 252.1323 0192876 307.4336 174.3011 13.04886814453754
Epoch: 2025-11-02T10:12Z
TLE epoch observation values (Epoch: 2025-11-02T10:12:52.842Z)
Latitude
56.10387°
Longitude
-104.23162°
Altitude
1,398.467 km
Speed
7.097 km/s
True Right ascension
06h 03m 43s
True Declination
55° 57' 27"
Sunlit
Object was in daylight at epoch
Visualization orbit readout
Latitude
Unknown
Longitude
Unknown
Altitude
Unknown
Speed
Unknown
Apparent Right ascension
Unknown
Apparent Declination
Unknown
Sunlit
N/A
Visualization observer readout
Local Sidereal Time
11:56:10
Azimuth
Unknown
Elevation
Unknown
Doppler factor
Unknown
Orbital elements
Apogee altitude
1,387.455 km
Perigee altitude
1,093.564 km
Semi-major axis
7,618.646 km
Eccentricity
0.01929
Inclination
102.2745°
RAAN
252.1323°
Arg. of periapsis
307.4336°
True anomaly
174.51543°
Mean anomaly
174.3011°
Eccentric anomaly
174.40877°
Mean motion
3.26382 °/min
Orbital period
110.3 mins
BSTAR
0.0029743
Loading maneuver chart data...
Computing Atmospheric mass density...

Documentation

Showing up to 5 results
|